Location: *
(49.3500°N, 12.6000°E)
Time: 18:35:33
(UTC+00:00)

STARLINK-56 - Pass Details

Date: 18 October 2019
Orbit: 548 x 551 km, 53.0° (Epoch: 14 November)

Event Time Altitude Azimuth Distance (km) Brightness Sun altitude
Rises 17:11:20 0° 256° (WSW) 2,713 9.2 -10.0°
Reaches altitude 10° 17:13:34 10° 259° (W) 1,821 7.8 -10.4°
Maximum altitude 17:17:42 67° 343° (NNW) 598 3.8 -11.1°
Enters shadow 17:21:04 15° 65° (ENE) 1,530 5.3 -11.6°
